Voltar ao catálogo

GSAT 17

AtivoComunicaçõesGEO
NORAD 42815·PAYLOAD·🇮🇳 India

Lançado Jun 28, 2017 de Guiana Space Centre

Loading…

TLE

AtualizadoSource: Space-Track

Época: Sep 14, 2026, 14:14 UTC

1 42815U 17040B   26257.59364775 -.00000265  00000-0  00000-0 0  9994
2 42815   0.0150 156.3539 0003997  94.5759  49.8428  1.00271329 33687

Acompanhe GSAT 17 em tempo real com AllMySat

Download on the App Store